owner,sensor,date,latitude,longitude,vertical_datum,wind_speed,wind_to_direction,wind_speed_of_gust,qcFlag 
TCOON,ioos:station:TCOON:524:1,2011-08-01T00:00:00Z,29.8672,-93.9310,0.0,3.1,180.0,,'1111122,1111122,1111122' 
TCOON,ioos:station:TCOON:524:1,2011-08-01T00:06:00Z,29.8672,-93.9310,0.0,3.0,171.0,99.0,'11111222,11111222,11144222' 
TCOON,ioos:station:TCOON:524:1,2011-08-01T00:12:00Z,29.8672,-93.9310,0.0,3.0,167.0,99.0,'11111222,11111222,11144222' 
TCOON,ioos:station:TCOON:524:1,2011-08-01T00:18:00Z,29.8672,-93.9310,0.0,2.9,170.0,99.0,'11111222,11111222,11144222' 
TCOON,ioos:station:TCOON:524:1,2011-08-01T00:24:00Z,29.8672,-93.9310,0.0,3.4,168.0,99.0,'11111222,11111222,11144222' 
TCOON,ioos:station:TCOON:524:1,2011-08-01T00:30:00Z,29.8672,-93.9310,0.0,3.1,166.0,99.0,'11111222,11111222,11144222' 
TCOON,ioos:station:TCOON:524:1,2011-08-01T00:36:00Z,29.8672,-93.9310,0.0,3.1,166.0,99.0,'11111222,11111222,11144222' 
TCOON,ioos:station:TCOON:524:1,2011-08-01T00:42:00Z,29.8672,-93.9310,0.0,2.4,162.0,99.0,'11111222,11111222,11144222' 
TCOON,ioos:station:TCOON:524:1,2011-08-01T00:48:00Z,29.8672,-93.9310,0.0,2.4,171.0,99.0,'11111222,11111222,11144222' 
TCOON,ioos:station:TCOON:524:1,2011-08-01T00:54:00Z,29.8672,-93.9310,0.0,2.2,165.0,99.0,'11111222,11111222,11144222' 
TCOON,ioos:station:TCOON:524:1,2011-08-01T01:00:00Z,29.8672,-93.9310,0.0,3.1,170.0,,'1111122,1111122,1111122' 
TCOON,ioos:station:TCOON:524:1,2011-08-01T01:06:00Z,29.8672,-93.9310,0.0,2.4,177.0,99.0,'11111222,11111222,11144222' 
TCOON,ioos:station:TCOON:524:1,2011-08-01T01:12:00Z,29.8672,-93.9310,0.0,2.2,159.0,99.0,'11111222,11111222,11144222' 
TCOON,ioos:station:TCOON:524:1,2011-08-01T01:18:00Z,29.8672,-93.9310,0.0,2.2,158.0,99.0,'11111222,11111222,11144222' 
TCOON,ioos:station:TCOON:524:1,2011-08-01T01:24:00Z,29.8672,-93.9310,0.0,2.1,164.0,99.0,'11111222,11111222,11144222' 
TCOON,ioos:station:TCOON:524:1,2011-08-01T01:30:00Z,29.8672,-93.9310,0.0,2.6,169.0,99.0,'11111222,11111222,11144222' 
TCOON,ioos:station:TCOON:524:1,2011-08-01T01:36:00Z,29.8672,-93.9310,0.0,2.2,176.0,99.0,'11111222,11111222,11144222' 
TCOON,ioos:station:TCOON:524:1,2011-08-01T01:42:00Z,29.8672,-93.9310,0.0,2.5,178.0,99.0,'11111222,11111222,11144222' 
TCOON,ioos:station:TCOON:524:1,2011-08-01T01:48:00Z,29.8672,-93.9310,0.0,2.4,181.0,99.0,'11111222,11111222,11144222' 
TCOON,ioos:station:TCOON:524:1,2011-08-01T01:54:00Z,29.8672,-93.9310,0.0,2.9,187.0,99.0,'11111222,11111222,11144222' 
TCOON,ioos:station:TCOON:524:1,2011-08-01T02:00:00Z,29.8672,-93.9310,0.0,2.1,180.0,,'1111122,1111122,1111122' 
TCOON,ioos:station:TCOON:524:1,2011-08-01T02:06:00Z,29.8672,-93.9310,0.0,3.1,183.0,99.0,'11111222,11111222,11144222' 
TCOON,ioos:station:TCOON:524:1,2011-08-01T02:12:00Z,29.8672,-93.9310,0.0,2.5,184.0,99.0,'11111222,11111222,11144222' 
TCOON,ioos:station:TCOON:524:1,2011-08-01T02:18:00Z,29.8672,-93.9310,0.0,3.2,192.0,99.0,'11111222,11111222,11144222' 
TCOON,ioos:station:TCOON:524:1,2011-08-01T02:24:00Z,29.8672,-93.9310,0.0,3.2,195.0,99.0,'11111222,11111222,11144222' 
TCOON,ioos:station:TCOON:524:1,2011-08-01T02:30:00Z,29.8672,-93.9310,0.0,3.2,189.0,99.0,'11111222,11111222,11144222' 
TCOON,ioos:station:TCOON:524:1,2011-08-01T02:36:00Z,29.8672,-93.9310,0.0,3.3,189.0,99.0,'11111222,11111222,11144222' 
TCOON,ioos:station:TCOON:524:1,2011-08-01T02:42:00Z,29.8672,-93.9310,0.0,2.5,188.0,99.0,'11111222,11111222,11144222' 
TCOON,ioos:station:TCOON:524:1,2011-08-01T02:48:00Z,29.8672,-93.9310,0.0,1.9,174.0,99.0,'11111222,11111222,11144222' 
TCOON,ioos:station:TCOON:524:1,2011-08-01T02:54:00Z,29.8672,-93.9310,0.0,1.7,167.0,99.0,'11111222,11111222,11144222' 
TCOON,ioos:station:TCOON:524:1,2011-08-01T03:00:00Z,29.8672,-93.9310,0.0,3.1,190.0,,'1111122,1111122,1111122' 
TCOON,ioos:station:TCOON:524:1,2011-08-01T03:06:00Z,29.8672,-93.9310,0.0,1.9,155.0,99.0,'11111222,11111222,11144222' 
TCOON,ioos:station:TCOON:524:1,2011-08-01T03:12:00Z,29.8672,-93.9310,0.0,1.6,162.0,99.0,'11111222,11111222,11144222' 
TCOON,ioos:station:TCOON:524:1,2011-08-01T03:18:00Z,29.8672,-93.9310,0.0,1.9,169.0,99.0,'11111222,11111222,11144222' 
TCOON,ioos:station:TCOON:524:1,2011-08-01T03:24:00Z,29.8672,-93.9310,0.0,2.2,171.0,99.0,'11111222,11111222,11144222' 
TCOON,ioos:station:TCOON:524:1,2011-08-01T03:30:00Z,29.8672,-93.9310,0.0,1.7,174.0,99.0,'11111222,11111222,11144222' 
TCOON,ioos:station:TCOON:524:1,2011-08-01T03:36:00Z,29.8672,-93.9310,0.0,1.9,165.0,99.0,'11111222,11111222,11144222' 
TCOON,ioos:station:TCOON:524:1,2011-08-01T03:42:00Z,29.8672,-93.9310,0.0,1.8,166.0,99.0,'11111222,11111222,11144222' 
TCOON,ioos:station:TCOON:524:1,2011-08-01T03:48:00Z,29.8672,-93.9310,0.0,1.7,181.0,99.0,'11111222,11111222,11144222' 
TCOON,ioos:station:TCOON:524:1,2011-08-01T03:54:00Z,29.8672,-93.9310,0.0,2.4,173.0,99.0,'11111222,11111222,11144222' 
TCOON,ioos:station:TCOON:524:1,2011-08-01T04:00:00Z,29.8672,-93.9310,0.0,2.1,170.0,,'1111122,1111122,1111122' 
TCOON,ioos:station:TCOON:524:1,2011-08-01T04:06:00Z,29.8672,-93.9310,0.0,2.7,194.0,99.0,'11111222,11111222,11144222' 
TCOON,ioos:station:TCOON:524:1,2011-08-01T04:12:00Z,29.8672,-93.9310,0.0,2.1,225.0,99.0,'11111222,11111222,11144222' 
TCOON,ioos:station:TCOON:524:1,2011-08-01T04:18:00Z,29.8672,-93.9310,0.0,2.6,200.0,99.0,'11111222,11111222,11144222' 
TCOON,ioos:station:TCOON:524:1,2011-08-01T04:24:00Z,29.8672,-93.9310,0.0,2.7,203.0,99.0,'11111222,11111222,11144222' 
TCOON,ioos:station:TCOON:524:1,2011-08-01T04:30:00Z,29.8672,-93.9310,0.0,2.4,228.0,99.0,'11111222,11111222,11144222' 
TCOON,ioos:station:TCOON:524:1,2011-08-01T04:36:00Z,29.8672,-93.9310,0.0,2.5,225.0,99.0,'11111222,11111222,11144222' 
TCOON,ioos:station:TCOON:524:1,2011-08-01T04:42:00Z,29.8672,-93.9310,0.0,2.4,220.0,99.0,'11111222,11111222,11144222' 
TCOON,ioos:station:TCOON:524:1,2011-08-01T04:48:00Z,29.8672,-93.9310,0.0,2.3,210.0,99.0,'11111222,11111222,11144222' 
TCOON,ioos:station:TCOON:524:1,2011-08-01T04:54:00Z,29.8672,-93.9310,0.0,2.1,218.0,99.0,'11111222,11111222,11144222' 
TCOON,ioos:station:TCOON:524:1,2011-08-01T05:00:00Z,29.8672,-93.9310,0.0,2.6,230.0,,'1111122,1111122,1111122' 
TCOON,ioos:station:TCOON:524:1,2011-08-01T05:06:00Z,29.8672,-93.9310,0.0,2.8,202.0,99.0,'11111222,11111222,11144222' 
TCOON,ioos:station:TCOON:524:1,2011-08-01T05:12:00Z,29.8672,-93.9310,0.0,3.6,204.0,99.0,'11111222,11111222,11144222' 
TCOON,ioos:station:TCOON:524:1,2011-08-01T05:18:00Z,29.8672,-93.9310,0.0,3.2,203.0,99.0,'11111222,11111222,11144222' 
TCOON,ioos:station:TCOON:524:1,2011-08-01T05:24:00Z,29.8672,-93.9310,0.0,3.3,204.0,99.0,'11111222,11111222,11144222' 
TCOON,ioos:station:TCOON:524:1,2011-08-01T05:30:00Z,29.8672,-93.9310,0.0,3.0,196.0,99.0,'11111222,11111222,11144222' 
TCOON,ioos:station:TCOON:524:1,2011-08-01T05:36:00Z,29.8672,-93.9310,0.0,3.4,193.0,99.0,'11111222,11111222,11144222' 
TCOON,ioos:station:TCOON:524:1,2011-08-01T05:42:00Z,29.8672,-93.9310,0.0,3.7,203.0,99.0,'11111222,11111222,11144222' 
TCOON,ioos:station:TCOON:524:1,2011-08-01T05:48:00Z,29.8672,-93.9310,0.0,4.0,200.0,99.0,'11111222,11111222,11144222' 
TCOON,ioos:station:TCOON:524:1,2011-08-01T05:54:00Z,29.8672,-93.9310,0.0,3.6,205.0,99.0,'11111222,11111222,11144222' 
TCOON,ioos:station:TCOON:524:1,2011-08-01T06:00:00Z,29.8672,-93.9310,0.0,3.6,190.0,,'1111122,1111122,1111122' 
TCOON,ioos:station:TCOON:524:1,2011-08-01T06:06:00Z,29.8672,-93.9310,0.0,3.5,210.0,99.0,'11111222,11111222,11144222' 
TCOON,ioos:station:TCOON:524:1,2011-08-01T06:12:00Z,29.8672,-93.9310,0.0,2.9,214.0,99.0,'11111222,11111222,11144222' 
TCOON,ioos:station:TCOON:524:1,2011-08-01T06:18:00Z,29.8672,-93.9310,0.0,3.0,205.0,99.0,'11111222,11111222,11144222' 
TCOON,ioos:station:TCOON:524:1,2011-08-01T06:24:00Z,29.8672,-93.9310,0.0,3.3,205.0,99.0,'11111222,11111222,11144222' 
TCOON,ioos:station:TCOON:524:1,2011-08-01T06:30:00Z,29.8672,-93.9310,0.0,3.1,202.0,99.0,'11111222,11111222,11144222' 
TCOON,ioos:station:TCOON:524:1,2011-08-01T06:36:00Z,29.8672,-93.9310,0.0,3.4,204.0,99.0,'11111222,11111222,11144222' 
TCOON,ioos:station:TCOON:524:1,2011-08-01T06:42:00Z,29.8672,-93.9310,0.0,3.4,202.0,99.0,'11111222,11111222,11144222' 
TCOON,ioos:station:TCOON:524:1,2011-08-01T06:48:00Z,29.8672,-93.9310,0.0,2.7,195.0,99.0,'11111222,11111222,11144222' 
TCOON,ioos:station:TCOON:524:1,2011-08-01T06:54:00Z,29.8672,-93.9310,0.0,2.9,196.0,99.0,'11111222,11111222,11144222' 
TCOON,ioos:station:TCOON:524:1,2011-08-01T07:00:00Z,29.8672,-93.9310,0.0,3.6,200.0,,'1111122,1111122,1111122' 
TCOON,ioos:station:TCOON:524:1,2011-08-01T07:06:00Z,29.8672,-93.9310,0.0,3.6,208.0,99.0,'11111222,11111222,11144222' 
TCOON,ioos:station:TCOON:524:1,2011-08-01T07:12:00Z,29.8672,-93.9310,0.0,3.0,202.0,99.0,'11111222,11111222,11144222' 
TCOON,ioos:station:TCOON:524:1,2011-08-01T07:18:00Z,29.8672,-93.9310,0.0,3.3,202.0,99.0,'11111222,11111222,11144222' 
TCOON,ioos:station:TCOON:524:1,2011-08-01T07:24:00Z,29.8672,-93.9310,0.0,3.3,202.0,99.0,'11111222,11111222,11144222' 
TCOON,ioos:station:TCOON:524:1,2011-08-01T07:30:00Z,29.8672,-93.9310,0.0,3.1,200.0,99.0,'11111222,11111222,11144222' 
TCOON,ioos:station:TCOON:524:1,2011-08-01T07:36:00Z,29.8672,-93.9310,0.0,3.1,207.0,99.0,'11111222,11111222,11144222' 
TCOON,ioos:station:TCOON:524:1,2011-08-01T07:42:00Z,29.8672,-93.9310,0.0,3.4,205.0,99.0,'11111222,11111222,11144222' 
TCOON,ioos:station:TCOON:524:1,2011-08-01T07:48:00Z,29.8672,-93.9310,0.0,3.2,203.0,99.0,'11111222,11111222,11144222' 
TCOON,ioos:station:TCOON:524:1,2011-08-01T07:54:00Z,29.8672,-93.9310,0.0,3.0,212.0,99.0,'11111222,11111222,11144222' 
TCOON,ioos:station:TCOON:524:1,2011-08-01T08:00:00Z,29.8672,-93.9310,0.0,3.1,210.0,,'1111122,1111122,1111122' 
TCOON,ioos:station:TCOON:524:1,2011-08-01T08:06:00Z,29.8672,-93.9310,0.0,3.1,198.0,99.0,'11111222,11111222,11144222' 
TCOON,ioos:station:TCOON:524:1,2011-08-01T08:12:00Z,29.8672,-93.9310,0.0,3.1,194.0,99.0,'11111222,11111222,11144222' 
TCOON,ioos:station:TCOON:524:1,2011-08-01T08:18:00Z,29.8672,-93.9310,0.0,3.1,201.0,99.0,'11111222,11111222,11144222' 
TCOON,ioos:station:TCOON:524:1,2011-08-01T08:24:00Z,29.8672,-93.9310,0.0,3.1,209.0,99.0,'11111222,11111222,11144222' 
TCOON,ioos:station:TCOON:524:1,2011-08-01T08:30:00Z,29.8672,-93.9310,0.0,2.8,210.0,99.0,'11111222,11111222,11144222' 
TCOON,ioos:station:TCOON:524:1,2011-08-01T08:36:00Z,29.8672,-93.9310,0.0,3.3,203.0,99.0,'11111222,11111222,11144222' 
TCOON,ioos:station:TCOON:524:1,2011-08-01T08:42:00Z,29.8672,-93.9310,0.0,3.1,208.0,99.0,'11111222,11111222,11144222' 
TCOON,ioos:station:TCOON:524:1,2011-08-01T08:48:00Z,29.8672,-93.9310,0.0,3.1,204.0,99.0,'11111222,11111222,11144222' 
TCOON,ioos:station:TCOON:524:1,2011-08-01T08:54:00Z,29.8672,-93.9310,0.0,3.2,202.0,99.0,'11111222,11111222,11144222' 
TCOON,ioos:station:TCOON:524:1,2011-08-01T09:00:00Z,29.8672,-93.9310,0.0,3.1,200.0,,'1111122,1111122,1111122' 
TCOON,ioos:station:TCOON:524:1,2011-08-01T09:06:00Z,29.8672,-93.9310,0.0,3.4,206.0,99.0,'11111222,11111222,11144222' 
TCOON,ioos:station:TCOON:524:1,2011-08-01T09:12:00Z,29.8672,-93.9310,0.0,3.9,205.0,99.0,'11111222,11111222,11144222' 
TCOON,ioos:station:TCOON:524:1,2011-08-01T09:18:00Z,29.8672,-93.9310,0.0,3.7,202.0,99.0,'11111222,11111222,11144222' 
TCOON,ioos:station:TCOON:524:1,2011-08-01T09:24:00Z,29.8672,-93.9310,0.0,3.8,202.0,99.0,'11111222,11111222,11144222' 
TCOON,ioos:station:TCOON:524:1,2011-08-01T09:30:00Z,29.8672,-93.9310,0.0,3.5,208.0,99.0,'11111222,11111222,11144222' 
TCOON,ioos:station:TCOON:524:1,2011-08-01T09:36:00Z,29.8672,-93.9310,0.0,2.1,231.0,99.0,'11111222,11111222,11144222' 
TCOON,ioos:station:TCOON:524:1,2011-08-01T09:42:00Z,29.8672,-93.9310,0.0,2.2,227.0,99.0,'11111222,11111222,11144222' 
TCOON,ioos:station:TCOON:524:1,2011-08-01T09:48:00Z,29.8672,-93.9310,0.0,2.5,222.0,99.0,'11111222,11111222,11144222' 
TCOON,ioos:station:TCOON:524:1,2011-08-01T09:54:00Z,29.8672,-93.9310,0.0,2.5,215.0,99.0,'11111222,11111222,11144222' 
TCOON,ioos:station:TCOON:524:1,2011-08-01T10:00:00Z,29.8672,-93.9310,0.0,2.1,230.0,,'1111122,1111122,1111122' 
TCOON,ioos:station:TCOON:524:1,2011-08-01T10:06:00Z,29.8672,-93.9310,0.0,2.6,218.0,99.0,'11111222,11111222,11144222' 
TCOON,ioos:station:TCOON:524:1,2011-08-01T10:12:00Z,29.8672,-93.9310,0.0,1.9,226.0,99.0,'11111222,11111222,11144222' 
TCOON,ioos:station:TCOON:524:1,2011-08-01T10:18:00Z,29.8672,-93.9310,0.0,1.8,258.0,99.0,'11111222,11111222,11144222' 
TCOON,ioos:station:TCOON:524:1,2011-08-01T10:24:00Z,29.8672,-93.9310,0.0,2.2,242.0,99.0,'11111222,11111222,11144222' 
TCOON,ioos:station:TCOON:524:1,2011-08-01T10:30:00Z,29.8672,-93.9310,0.0,2.4,228.0,99.0,'11111222,11111222,11144222' 
TCOON,ioos:station:TCOON:524:1,2011-08-01T10:36:00Z,29.8672,-93.9310,0.0,1.8,234.0,99.0,'11111222,11111222,11144222' 
TCOON,ioos:station:TCOON:524:1,2011-08-01T10:42:00Z,29.8672,-93.9310,0.0,2.0,226.0,99.0,'11111222,11111222,11144222' 
TCOON,ioos:station:TCOON:524:1,2011-08-01T10:48:00Z,29.8672,-93.9310,0.0,2.2,243.0,99.0,'11111222,11111222,11144222' 
TCOON,ioos:station:TCOON:524:1,2011-08-01T10:54:00Z,29.8672,-93.9310,0.0,3.0,248.0,99.0,'11111222,11111222,11144222' 
TCOON,ioos:station:TCOON:524:1,2011-08-01T11:00:00Z,29.8672,-93.9310,0.0,2.1,230.0,,'1111122,1111122,1111122' 
TCOON,ioos:station:TCOON:524:1,2011-08-01T11:06:00Z,29.8672,-93.9310,0.0,3.1,254.0,99.0,'11111222,11111222,11144222' 
TCOON,ioos:station:TCOON:524:1,2011-08-01T11:12:00Z,29.8672,-93.9310,0.0,3.0,259.0,99.0,'11111222,11111222,11144222' 
TCOON,ioos:station:TCOON:524:1,2011-08-01T11:18:00Z,29.8672,-93.9310,0.0,2.2,268.0,99.0,'11111222,11111222,11144222' 
TCOON,ioos:station:TCOON:524:1,2011-08-01T11:24:00Z,29.8672,-93.9310,0.0,2.7,267.0,99.0,'11111222,11111222,11144222' 
TCOON,ioos:station:TCOON:524:1,2011-08-01T11:30:00Z,29.8672,-93.9310,0.0,2.7,273.0,99.0,'11111222,11111222,11144222' 
TCOON,ioos:station:TCOON:524:1,2011-08-01T11:36:00Z,29.8672,-93.9310,0.0,3.0,265.0,99.0,'11111222,11111222,11144222' 
TCOON,ioos:station:TCOON:524:1,2011-08-01T11:42:00Z,29.8672,-93.9310,0.0,2.6,271.0,99.0,'11111222,11111222,11144222' 
TCOON,ioos:station:TCOON:524:1,2011-08-01T11:48:00Z,29.8672,-93.9310,0.0,2.4,275.0,99.0,'11111222,11111222,11144222' 
TCOON,ioos:station:TCOON:524:1,2011-08-01T11:54:00Z,29.8672,-93.9310,0.0,1.9,271.0,99.0,'11111222,11111222,11144222' 
TCOON,ioos:station:TCOON:524:1,2011-08-01T12:00:00Z,29.8672,-93.9310,0.0,3.1,270.0,,'1111122,1111122,1111122' 
TCOON,ioos:station:TCOON:524:1,2011-08-01T12:06:00Z,29.8672,-93.9310,0.0,2.4,266.0,99.0,'11111222,11111222,11144222' 
TCOON,ioos:station:TCOON:524:1,2011-08-01T12:12:00Z,29.8672,-93.9310,0.0,2.5,262.0,99.0,'11111222,11111222,11144222' 
TCOON,ioos:station:TCOON:524:1,2011-08-01T12:18:00Z,29.8672,-93.9310,0.0,3.0,263.0,99.0,'11111222,11111222,11144222' 
TCOON,ioos:station:TCOON:524:1,2011-08-01T12:24:00Z,29.8672,-93.9310,0.0,2.5,268.0,99.0,'11111222,11111222,11144222' 
TCOON,ioos:station:TCOON:524:1,2011-08-01T12:30:00Z,29.8672,-93.9310,0.0,3.2,270.0,99.0,'11111222,11111222,11144222' 
TCOON,ioos:station:TCOON:524:1,2011-08-01T12:36:00Z,29.8672,-93.9310,0.0,3.8,255.0,99.0,'11111222,11111222,11144222' 
TCOON,ioos:station:TCOON:524:1,2011-08-01T12:42:00Z,29.8672,-93.9310,0.0,2.7,255.0,99.0,'11111222,11111222,11144222' 
TCOON,ioos:station:TCOON:524:1,2011-08-01T12:48:00Z,29.8672,-93.9310,0.0,3.0,258.0,99.0,'11111222,11111222,11144222' 
TCOON,ioos:station:TCOON:524:1,2011-08-01T12:54:00Z,29.8672,-93.9310,0.0,3.9,261.0,99.0,'11111222,11111222,11144222' 
TCOON,ioos:station:TCOON:524:1,2011-08-01T13:00:00Z,29.8672,-93.9310,0.0,3.6,260.0,,'1111122,1111122,1111122' 
TCOON,ioos:station:TCOON:524:1,2011-08-01T13:06:00Z,29.8672,-93.9310,0.0,4.3,260.0,99.0,'11111222,11111222,11144222' 
TCOON,ioos:station:TCOON:524:1,2011-08-01T13:12:00Z,29.8672,-93.9310,0.0,4.3,260.0,99.0,'11111222,11111222,11144222' 
TCOON,ioos:station:TCOON:524:1,2011-08-01T13:18:00Z,29.8672,-93.9310,0.0,4.3,263.0,99.0,'11111222,11111222,11144222' 
TCOON,ioos:station:TCOON:524:1,2011-08-01T13:24:00Z,29.8672,-93.9310,0.0,4.3,253.0,99.0,'11111222,11111222,11144222' 
TCOON,ioos:station:TCOON:524:1,2011-08-01T13:30:00Z,29.8672,-93.9310,0.0,4.1,254.0,99.0,'11111222,11111222,11144222' 
TCOON,ioos:station:TCOON:524:1,2011-08-01T13:36:00Z,29.8672,-93.9310,0.0,3.9,257.0,99.0,'11111222,11111222,11144222' 
TCOON,ioos:station:TCOON:524:1,2011-08-01T13:42:00Z,29.8672,-93.9310,0.0,4.0,258.0,99.0,'11111222,11111222,11144222' 
TCOON,ioos:station:TCOON:524:1,2011-08-01T13:48:00Z,29.8672,-93.9310,0.0,3.9,259.0,99.0,'11111222,11111222,11144222' 
TCOON,ioos:station:TCOON:524:1,2011-08-01T13:54:00Z,29.8672,-93.9310,0.0,3.9,258.0,99.0,'11111222,11111222,11144222' 
TCOON,ioos:station:TCOON:524:1,2011-08-01T14:00:00Z,29.8672,-93.9310,0.0,4.1,243.0,99.0,'11111222,11111222,11144222' 
TCOON,ioos:station:TCOON:524:1,2011-08-01T14:06:00Z,29.8672,-93.9310,0.0,3.3,249.0,99.0,'11111222,11111222,11144222' 
TCOON,ioos:station:TCOON:524:1,2011-08-01T14:12:00Z,29.8672,-93.9310,0.0,4.1,255.0,99.0,'11111222,11111222,11144222' 
TCOON,ioos:station:TCOON:524:1,2011-08-01T14:18:00Z,29.8672,-93.9310,0.0,4.2,256.0,99.0,'11111222,11111222,11144222' 
TCOON,ioos:station:TCOON:524:1,2011-08-01T14:24:00Z,29.8672,-93.9310,0.0,4.0,258.0,99.0,'11111222,11111222,11144222' 
TCOON,ioos:station:TCOON:524:1,2011-08-01T14:30:00Z,29.8672,-93.9310,0.0,3.4,264.0,99.0,'11111222,11111222,11144222' 
TCOON,ioos:station:TCOON:524:1,2011-08-01T14:36:00Z,29.8672,-93.9310,0.0,3.4,274.0,99.0,'11111222,11111222,11144222' 
TCOON,ioos:station:TCOON:524:1,2011-08-01T14:42:00Z,29.8672,-93.9310,0.0,3.5,241.0,99.0,'11111222,11111222,11144222' 
TCOON,ioos:station:TCOON:524:1,2011-08-01T14:48:00Z,29.8672,-93.9310,0.0,4.0,269.0,99.0,'11111222,11111222,11144222' 
TCOON,ioos:station:TCOON:524:1,2011-08-01T14:54:00Z,29.8672,-93.9310,0.0,3.7,269.0,99.0,'11111222,11111222,11144222' 
TCOON,ioos:station:TCOON:524:1,2011-08-01T15:00:00Z,29.8672,-93.9310,0.0,4.1,271.0,99.0,'11111222,11111222,11144222' 
TCOON,ioos:station:TCOON:524:1,2011-08-01T15:06:00Z,29.8672,-93.9310,0.0,4.0,262.0,99.0,'11111222,11111222,11144222' 
TCOON,ioos:station:TCOON:524:1,2011-08-01T15:12:00Z,29.8672,-93.9310,0.0,3.1,268.0,99.0,'11111222,11111222,11144222' 
TCOON,ioos:station:TCOON:524:1,2011-08-01T15:18:00Z,29.8672,-93.9310,0.0,3.5,272.0,99.0,'11111222,11111222,11144222' 
TCOON,ioos:station:TCOON:524:1,2011-08-01T15:24:00Z,29.8672,-93.9310,0.0,4.0,270.0,99.0,'11111222,11111222,11144222' 
TCOON,ioos:station:TCOON:524:1,2011-08-01T15:30:00Z,29.8672,-93.9310,0.0,3.0,244.0,99.0,'11111222,11111222,11144222' 
TCOON,ioos:station:TCOON:524:1,2011-08-01T15:36:00Z,29.8672,-93.9310,0.0,3.1,262.0,99.0,'11111222,11111222,11144222' 
TCOON,ioos:station:TCOON:524:1,2011-08-01T15:42:00Z,29.8672,-93.9310,0.0,3.0,246.0,99.0,'11111222,11111222,11144222' 
TCOON,ioos:station:TCOON:524:1,2011-08-01T15:48:00Z,29.8672,-93.9310,0.0,3.3,254.0,99.0,'11111222,11111222,11144222' 
TCOON,ioos:station:TCOON:524:1,2011-08-01T15:54:00Z,29.8672,-93.9310,0.0,3.7,265.0,99.0,'11111222,11111222,11144222' 
TCOON,ioos:station:TCOON:524:1,2011-08-01T16:00:00Z,29.8672,-93.9310,0.0,3.1,260.0,,'1111122,1111122,1111122' 
TCOON,ioos:station:TCOON:524:1,2011-08-01T16:06:00Z,29.8672,-93.9310,0.0,2.6,227.0,99.0,'11111222,11111222,11144222' 
TCOON,ioos:station:TCOON:524:1,2011-08-01T16:12:00Z,29.8672,-93.9310,0.0,2.5,277.0,99.0,'11111222,11111222,11144222' 
TCOON,ioos:station:TCOON:524:1,2011-08-01T16:18:00Z,29.8672,-93.9310,0.0,1.4,268.0,99.0,'11111222,11111222,11144222' 
TCOON,ioos:station:TCOON:524:1,2011-08-01T16:24:00Z,29.8672,-93.9310,0.0,2.8,196.0,99.0,'11111222,11111222,11144222' 
TCOON,ioos:station:TCOON:524:1,2011-08-01T16:30:00Z,29.8672,-93.9310,0.0,3.3,181.0,99.0,'11111222,11111222,11144222' 
TCOON,ioos:station:TCOON:524:1,2011-08-01T16:36:00Z,29.8672,-93.9310,0.0,3.1,180.0,99.0,'11111222,11111222,11144222' 
TCOON,ioos:station:TCOON:524:1,2011-08-01T16:42:00Z,29.8672,-93.9310,0.0,1.0,217.0,99.0,'11111222,11111222,11144222' 
TCOON,ioos:station:TCOON:524:1,2011-08-01T16:48:00Z,29.8672,-93.9310,0.0,1.5,259.0,99.0,'11111222,11111222,11144222' 
TCOON,ioos:station:TCOON:524:1,2011-08-01T16:54:00Z,29.8672,-93.9310,0.0,2.3,201.0,99.0,'11111222,11111222,11144222' 
TCOON,ioos:station:TCOON:524:1,2011-08-01T17:00:00Z,29.8672,-93.9310,0.0,3.1,180.0,,'1111122,1111122,1111122' 
TCOON,ioos:station:TCOON:524:1,2011-08-01T17:06:00Z,29.8672,-93.9310,0.0,3.2,203.0,99.0,'11111222,11111222,11144222' 
TCOON,ioos:station:TCOON:524:1,2011-08-01T17:12:00Z,29.8672,-93.9310,0.0,3.4,193.0,99.0,'11111222,11111222,11144222' 
TCOON,ioos:station:TCOON:524:1,2011-08-01T17:18:00Z,29.8672,-93.9310,0.0,3.6,202.0,99.0,'11111222,11111222,11144222' 
TCOON,ioos:station:TCOON:524:1,2011-08-01T17:24:00Z,29.8672,-93.9310,0.0,3.8,188.0,99.0,'11111222,11111222,11144222' 
TCOON,ioos:station:TCOON:524:1,2011-08-01T17:30:00Z,29.8672,-93.9310,0.0,4.2,194.0,99.0,'11111222,11111222,11144222' 
TCOON,ioos:station:TCOON:524:1,2011-08-01T17:36:00Z,29.8672,-93.9310,0.0,4.3,203.0,99.0,'11111222,11111222,11144222' 
TCOON,ioos:station:TCOON:524:1,2011-08-01T17:42:00Z,29.8672,-93.9310,0.0,3.7,216.0,99.0,'11111222,11111222,11144222' 
TCOON,ioos:station:TCOON:524:1,2011-08-01T17:48:00Z,29.8672,-93.9310,0.0,2.7,183.0,99.0,'11111222,11111222,11144222' 
TCOON,ioos:station:TCOON:524:1,2011-08-01T17:54:00Z,29.8672,-93.9310,0.0,3.2,158.0,99.0,'11111222,11111222,11144222' 
TCOON,ioos:station:TCOON:524:1,2011-08-01T18:00:00Z,29.8672,-93.9310,0.0,4.1,200.0,,'1111122,1111122,1111122' 
TCOON,ioos:station:TCOON:524:1,2011-08-01T18:06:00Z,29.8672,-93.9310,0.0,2.0,162.0,99.0,'11111222,11111222,11144222' 
TCOON,ioos:station:TCOON:524:1,2011-08-01T18:12:00Z,29.8672,-93.9310,0.0,3.4,172.0,99.0,'11111222,11111222,11144222' 
TCOON,ioos:station:TCOON:524:1,2011-08-01T18:18:00Z,29.8672,-93.9310,0.0,2.1,208.0,99.0,'11111222,11111222,11144222' 
TCOON,ioos:station:TCOON:524:1,2011-08-01T18:24:00Z,29.8672,-93.9310,0.0,3.3,198.0,99.0,'11111222,11111222,11144222' 
TCOON,ioos:station:TCOON:524:1,2011-08-01T18:30:00Z,29.8672,-93.9310,0.0,2.6,159.0,99.0,'11111222,11111222,11144222' 
TCOON,ioos:station:TCOON:524:1,2011-08-01T18:36:00Z,29.8672,-93.9310,0.0,2.8,191.0,99.0,'11111222,11111222,11144222' 
TCOON,ioos:station:TCOON:524:1,2011-08-01T18:42:00Z,29.8672,-93.9310,0.0,2.6,167.0,99.0,'11111222,11111222,11144222' 
TCOON,ioos:station:TCOON:524:1,2011-08-01T18:48:00Z,29.8672,-93.9310,0.0,1.5,203.0,99.0,'11111222,11111222,11144222' 
TCOON,ioos:station:TCOON:524:1,2011-08-01T18:54:00Z,29.8672,-93.9310,0.0,2.4,155.0,99.0,'11111222,11111222,11144222' 
TCOON,ioos:station:TCOON:524:1,2011-08-01T19:00:00Z,29.8672,-93.9310,0.0,2.6,190.0,,'1111122,1111122,1111122' 
TCOON,ioos:station:TCOON:524:1,2011-08-01T19:06:00Z,29.8672,-93.9310,0.0,2.2,183.0,99.0,'11111222,11111222,11144222' 
TCOON,ioos:station:TCOON:524:1,2011-08-01T19:12:00Z,29.8672,-93.9310,0.0,3.1,180.0,99.0,'11111222,11111222,11144222' 
TCOON,ioos:station:TCOON:524:1,2011-08-01T19:18:00Z,29.8672,-93.9310,0.0,3.2,172.0,99.0,'11111222,11111222,11144222' 
TCOON,ioos:station:TCOON:524:1,2011-08-01T19:24:00Z,29.8672,-93.9310,0.0,2.4,140.0,99.0,'11111222,11111222,11144222' 
TCOON,ioos:station:TCOON:524:1,2011-08-01T19:30:00Z,29.8672,-93.9310,0.0,2.7,146.0,99.0,'11111222,11111222,11144222' 
TCOON,ioos:station:TCOON:524:1,2011-08-01T19:36:00Z,29.8672,-93.9310,0.0,2.2,177.0,99.0,'11111222,11111222,11144222' 
TCOON,ioos:station:TCOON:524:1,2011-08-01T19:42:00Z,29.8672,-93.9310,0.0,3.3,159.0,99.0,'11111222,11111222,11144222' 
TCOON,ioos:station:TCOON:524:1,2011-08-01T19:48:00Z,29.8672,-93.9310,0.0,4.0,178.0,99.0,'11111222,11111222,11144222' 
TCOON,ioos:station:TCOON:524:1,2011-08-01T19:54:00Z,29.8672,-93.9310,0.0,4.6,184.0,99.0,'11111222,11111222,11144222' 
TCOON,ioos:station:TCOON:524:1,2011-08-01T20:00:00Z,29.8672,-93.9310,0.0,2.1,180.0,,'1111122,1111122,1111122' 
TCOON,ioos:station:TCOON:524:1,2011-08-01T20:06:00Z,29.8672,-93.9310,0.0,4.0,194.0,99.0,'11111222,11111222,11144222' 
TCOON,ioos:station:TCOON:524:1,2011-08-01T20:12:00Z,29.8672,-93.9310,0.0,3.7,166.0,99.0,'11111222,11111222,11144222' 